Miscellaneous Local Product
Issued by NWS North Platte, NE

Home | Current Version | Previous Version | Text Only | Print | Product List | Glossary On
Versions: 1 2 3 4 5 6 7 8 9 10 11 12 13 14 15 16 17 18 19 20 21 22 23 24 25 26 27 28 29 30 31 32 33 34 35 36 37 38 39 40 41 42 43 44 45 46 47 48 49 50
000
AXUS43 KLBF 232210
MISLBF


WESTERN AND NORTH CENTRAL NEBRASKA HOURLY WEATHER ROUNDUP
NATIONAL WEATHER SERVICE NORTH PLATTE NE
500 PM CDT SAT JUL 23 2016

NOTE: "FAIR" INDICATES FEW OR NO CLOUDS BELOW 12,000 FEET WITH NO
SIGNIFICANT WEATHER AND/OR OBSTRUCTIONS TO VISIBILITY.

NOTE: STATIONS NOT REPORTING VARIABLES SUCH AS SKY/WEATHER OR
PRESSURE ARE PROVIDED BY RAWS AND APRS NETWORKS AND ARE NOT UNDER
NATIONAL WEATHER SERVICE QUALITY CONTROL.

...OBSERVATIONS IN AND NEAR THE EASTERN PANHANDLE OF NEBRASKA...

CITY           SKY/WX    TMP DP  RH WIND       PRES   REMARKS
PINE RIDGE     SUNNY     92  48  22 NE10      29.94S
CHADRON        SUNNY     93  48  21 NE8       29.91F
ALLIANCE       SUNNY     93  50  23 N9        29.95F HX  90
SIDNEY         SUNNY     94  42  16 N14G21    29.99F HX  90
CRESCENT LAKE    N/A     92  55  28 NE9G16      N/A  HX  90
$$

...OBSERVATIONS IN NORTHERN NEBRASKA AND FAR SOUTHERN SOUTH DAKOTA...

CITY           SKY/WX    TMP DP  RH WIND       PRES   REMARKS
WINNER         FAIR     100  60  26 NW17G30   29.79R HX 100
VALENTINE      SUNNY     94  56  27 NW16      29.86R HX  92
THEDFORD       MOSUNNY   94  59  30 N17       29.89S HX  94
AINSWORTH      SUNNY     93  62  36 N16G22    29.85R HX  93
O`NEILL        CLOUDY    95  68  41 SW10      29.78S HX 100
ORD            CLOUDY    92  74  55 S8        29.80S HX 101
BROKEN BOW     CLOUDY    89  74  60 SW7       29.84F HX  98
VALENTINE NWR    N/A     92  61  35 NW16G23     N/A  HX  92
BUTTE            N/A     94  71  46 NW10        N/A  HX 100
HALSEY           N/A     96  63  33 NW10G17     N/A  HX  97
EWING            N/A     90  77  66 S6          N/A  HX 103
$$

...OBSERVATIONS IN SOUTHWEST NEBRASKA AND FAR NORTHEAST COLORADO...

CITY           SKY/WX    TMP DP  RH WIND       PRES   REMARKS
WRAY           FAIR     100  39  12 NE10G16   29.93F HX  95
HOLYOKE        FAIR      99  54  22 W9        29.94S HX  96
IMPERIAL       SUNNY     98  58  26 N9        29.90F HX  97
OGALLALA       SUNNY     98  50  19 N9        29.90F HX  95
NORTH PLATTE   CLOUDY    95  72  47 NW8       29.86F HX 103
MCCOOK         CLOUDY    93  70  46 E9        29.85F HX  99
LEXINGTON      CLOUDY    91  71  51 SE3       29.85S HX  97
STAPLETON        N/A     96  70  42 CALM        N/A  HX 102
GOTHENBURG       N/A     93  63  36 W6          N/A  HX  94
CALLAWAY         N/A     89  74  61 W6          N/A  HX  98
$$

...OBSERVATIONS IN CENTRAL LINCOLN COUNTY AREA...

CITY           SKY/WX    TMP DP  RH WIND       PRES   REMARKS
N.P. AIRPORT   CLOUDY    95  72  47 NW8       29.86F HX 103
N.P. DOWNTOWN    N/A     95  71  45 NW3         N/A  HX 102
N.P. SOUTHEAST   N/A     97  71  42 CALM        N/A  HX 104
N.P. HILLCREST   N/A     94  63  35 NW3         N/A  HX  95
$$

...SOME OBSERVATIONS FROM AROUND THE REGION...

CITY           SKY/WX    TMP DP  RH WIND       PRES   REMARKS
DENVER         PTSUNNY   98  38  12 S10       30.05F HX  93
LARAMIE        CLOUDY    84  36  18 NW18      30.21F
CHEYENNE       CLOUDY    91  39  16 NW13G24   30.10F
SCOTTSBLUFF    SUNNY     97  44  16 N7        29.94F HX  93
RAPID CITY     SUNNY     89  42  19 N17       29.94S
BISMARCK       MOSUNNY   83  63  50 NW13G21   29.81S
PIERRE         SUNNY     92  65  40 NW25      29.78R HX  94
SIOUX FALLS    MOSUNNY   91  73  55 SW8       29.74F HX  99
OMAHA          MOSUNNY   93  74  53 S14       29.78F HX 103
GRAND ISLAND   CLOUDY    95  68  41 SW10      29.81S HX  99
KANSAS CITY    CLOUDY    90  74  59 S13       29.89F HX  99
WICHITA        CLOUDY   104  60  23 S17G25    29.82F HX 105
OKLAHOMA CITY  MOSUNNY   98  64  32 S14       29.89F HX 100
DALLAS         MOSUNNY   99  68  36 S12       29.88F HX 104
AMARILLO       SUNNY     99  51  19 S20G25    29.98F HX  96
DODGE CITY     SUNNY    100  55  22 S20G25    29.85F HX  98
HAYS           SUNNY    106  52  16 SW18G25   29.80F HX 103
GOODLAND       SUNNY    101  50  18 NE13      29.93F HX  98
$$




USA.gov is the U.S. government's official web portal to all federal, state and local government web resources and services.